Home   Weather   Spartanburg   Past weeks

Flag for USA Past Weather in Spartanburg, South Carolina, USA — Yesterday and Last 2 Weeks

Now
54 °F

Passing clouds.


Feels Like: 53 °F
Forecast: 50 / 73 °F
Wind: 5 mph from North

Location: Spartanburg Memorial

Current Time: Feb 27, 2017 at 10:37:55 pm

Latest Report: Feb 27, 2017 at 9:55 pm


Visibility: 10 mi

Pressure: 30.30 "Hg

Humidity: 44%

Dew Point: 32 °F

Location of SpartanburgLocation

Past Weather in Spartanburg — Graph

°F

Spartanburg Temperature Yesterday

Maximum temperature yesterday: 59 °F (at 4:15 pm)
Minimum temperature yesterday: 34 °F (at 6:55 am)
Average temperature yesterday: 45 °F

High & Low Weather Summary for the Past Weeks

 TemperatureHumidityPressure
High75 °F (Feb 23, 3:55 pm)100% (Feb 15, 9:15 am)30.40 "Hg (Feb 15, 9:15 am)
Low32 °F (Feb 17, 5:35 am)7% (Feb 13, 5:55 pm)29.55 "Hg (Feb 15, 5:55 am)
Average54 °F52%29.98 "Hg
* Reported Feb 12 9:15 pm — Feb 27 9:35 pm, Spartanburg, Weather by CustomWeather, © 2017

Note: Actual official high and low records may vary slightly from our data, if they occured in-between our weather recording intervals... More about our weather records

Advertising

Spartanburg Weather History for the Previous 24 Hours

Scroll right to see more
 ConditionsComfort  
Time TempWeatherWind HumidityBarometerVisibility
9:35 pm
Mon, Feb 27
54 °FOvercast.3 mph44%30.30 "Hg10 mi
8:55 pm54 °FPassing clouds.6 mph44%30.30 "Hg10 mi
8:35 pm54 °FPassing clouds.5 mph44%30.30 "Hg10 mi
7:55 pm57 °FOvercast.No wind48%30.29 "Hg10 mi
7:15 pm55 °FPassing clouds.No wind51%30.29 "Hg10 mi
6:35 pm59 °FClear.3 mph45%30.26 "Hg10 mi
5:55 pm61 °FSunny.5 mph39%30.26 "Hg10 mi
5:15 pm63 °FSunny.6 mph37%30.26 "Hg10 mi
4:55 pm63 °FSunny.3 mph37%30.26 "Hg10 mi
4:35 pm63 °FSunny.7 mph37%30.29 "Hg10 mi
3:55 pm63 °FSunny.5 mph34%30.28 "Hg10 mi
3:15 pm63 °FSunny.3 mph27%30.31 "Hg10 mi
2:55 pm63 °FSunny.No wind27%30.32 "Hg10 mi
2:15 pm63 °FSunny.No wind27%30.33 "Hg10 mi
1:35 pm63 °FSunny.5 mph27%30.33 "Hg10 mi
12:15 pm61 °FSunny.5 mph34%30.40 "Hg10 mi
11:55 am61 °FSunny.5 mph34%30.39 "Hg10 mi
11:15 am55 °FSunny.No wind41%30.38 "Hg10 mi
10:55 am54 °FSunny.5 mph44%30.38 "Hg10 mi
10:15 am50 °FSunny.No wind43%30.38 "Hg10 mi
9:55 am46 °FSunny.3 mph46%30.39 "Hg10 mi
9:15 am45 °FSunny.No wind53%30.39 "Hg10 mi
8:55 am46 °FSunny.3 mph46%30.38 "Hg10 mi
8:15 am43 °FSunny.No wind57%30.36 "Hg10 mi
7:35 am41 °FSunny.No wind61%30.35 "Hg10 mi
6:55 am41 °FClear.3 mph57%30.33 "Hg10 mi
6:15 am41 °FClear.5 mph61%30.32 "Hg10 mi
5:55 am41 °FClear.5 mph57%30.32 "Hg10 mi
5:15 am39 °FClear.7 mph65%30.30 "Hg10 mi
4:55 am39 °FPassing clouds.3 mph65%30.30 "Hg10 mi
4:35 am37 °FPassing clouds.3 mph75%30.29 "Hg10 mi
3:55 am37 °FPassing clouds.3 mph70%30.27 "Hg10 mi
3:35 am36 °FClear.No wind75%30.27 "Hg10 mi
2:55 am36 °FClear.No wind65%30.27 "Hg10 mi
2:15 am36 °FClear.No wind65%30.27 "Hg10 mi
1:55 am36 °FClear.No wind60%30.27 "Hg10 mi
1:15 am37 °FClear.No wind60%30.27 "Hg10 mi
12:55 am37 °FClear.No wind56%30.26 "Hg10 mi
12:15 am39 °FClear.No wind48%30.26 "Hg10 mi
11:55 pm
Sun, Feb 26
37 °FClear.No wind52%30.27 "Hg10 mi
11:35 pm36 °FClear.No wind65%30.26 "Hg10 mi
10:55 pm39 °FClear.No wind48%30.27 "Hg10 mi
10:35 pm41 °FClear.No wind45%30.27 "Hg10 mi
Weather by CustomWeather, © 2017

See weather overviewHow to use our weather pages